User: anonymous   Login
Location: Axtheid
(49.6213°N, 11.8205°E)
Time: 14:39:24
(UTC+00:00)
Language:

NOAA 11 - Orbit

View from above orbital plane
View from above orbital plane
View from above satellite
View from above satellite

Ground track
Ground track

The orbit data is extracted from the following two-line orbital elements,

1 19531U 88089A   21162.74893187 -.00000015  00000-0  13331-4 0  9993
2 19531  98.4034 167.7106 0011498 161.6870 198.4721 14.15274303688384
Epoch (UTC): 11 June 2021 17:58:27
Eccentricity: 0.0011498
inclination: 98.4034°
perigee height: 833 km
apogee height: 849 km
right ascension of ascending node: 167.7106°
argument of perigee: 161.6870°
revolutions per day: 14.15274303
mean anomaly at epoch: 198.4721°
orbit number at epoch: 68838

The dashed part of the orbit path shows where the satellite is in the earth's shadow,  

DLR